Weather History for Eagle, CO

Change the Weather History Date:

Friday, November 2, 2012

  Actual Average Record
Temperature  
Mean Temperature 43 °F -  
Max Temperature 60 °F 48 °F 71 °F (2013)
Min Temperature 26 °F 20 °F -4 °F (1951)
Degree Days  
Heating Degree Days 22    
Moisture  
Dew Point 18 °F    
Average Humidity 48    
Maximum Humidity 74    
Minimum Humidity 15    
Precipitation  
Precipitation 0.00 in - - ()
Sea Level Pressure  
Sea Level Pressure 30.12 in    
Wind  
Wind Speed 2 mph (SE)    
Max Wind Speed 17 mph    
Max Gust Speed -    
Visibility 10 miles    
Events      
Averages and records for this station are not official NWS values.
T = Trace of Precipitation, MM = Missing Value Source: NWS Daily Summary

Daily Weather History Graph

Daily Weather History Graph

Search for Another Location

Airport:

Trip Planner

Search our weather history database for the weather conditions in past years. The results will help you decide how hot, cold, wet, or windy it might be!

Date:

Astronomy

Nov. 02, 2012 Rise Set
Actual Time 7:37 AM MDT 6:04 PM MDT
Civil Twilight 7:09 AM MDT 6:32 PM MDT
Nautical Twilight 6:37 AM MDT 7:03 PM MDT
Astronomical Twilight 6:06 AM MDT 7:35 PM MDT
Moon 8:54 PM MDT (11/2) 11:00 AM MDT (11/2)
Length of Visible Light 11h 22m
Length of Day
10h 26m
Waning Gibbous, 87% of the Moon is Illuminated
Nov 2
Waning Gibbous
Nov 6
Last Quarter
Nov 13
New
Nov 20
First Quarter
Nov 28
Full

Hourly Weather History & Observations

Time (MDT) Temp. Windchill Dew Point Humidity Pressure Visibility Wind Dir Wind Speed Gust Speed Precip Events Conditions
12:15 AM 33.8 °F 30.8 °F 19.4 °F 56% 30.08 in 10.0 mi ESE 3.5 mph - N/A   Clear
12:35 AM 33.8 °F - 19.4 °F 56% 30.09 in 10.0 mi Calm Calm - N/A   Clear
12:55 AM 33.8 °F - 19.4 °F 56% 30.09 in 10.0 mi Calm Calm - N/A   Partly Cloudy
1:15 AM 33.8 °F - 19.4 °F 56% 30.09 in 10.0 mi Calm Calm - N/A   Clear
1:35 AM 33.8 °F - 19.4 °F 56% 30.09 in 10.0 mi Calm Calm - N/A   Clear
1:55 AM 33.8 °F - 19.4 °F 56% 30.10 in 10.0 mi Calm Calm - N/A   Clear
2:15 AM 33.8 °F - 19.4 °F 56% 30.10 in 10.0 mi Calm Calm - N/A   Clear
2:35 AM 30.2 °F - 21.2 °F 69% 30.10 in 10.0 mi Calm Calm - N/A   Clear
2:55 AM 33.8 °F - 19.4 °F 56% 30.10 in 10.0 mi Calm Calm - N/A   Clear
3:15 AM 33.8 °F - 19.4 °F 56% 30.10 in 10.0 mi Calm Calm - N/A   Clear
3:35 AM 30.2 °F - 21.2 °F 69% 30.10 in 10.0 mi Calm Calm - N/A   Clear
3:55 AM 32.0 °F - 21.2 °F 64% 30.10 in 10.0 mi Calm Calm - N/A   Clear
4:15 AM 30.2 °F - 21.2 °F 69% 30.10 in 10.0 mi Calm Calm - N/A   Clear
4:35 AM 30.2 °F - 19.4 °F 64% 30.11 in 10.0 mi Calm Calm - N/A   Clear
4:55 AM 28.4 °F - 21.2 °F 74% 30.11 in 10.0 mi Calm Calm - N/A   Clear
5:15 AM 30.2 °F - 19.4 °F 64% 30.12 in 10.0 mi Calm Calm - N/A   Clear
5:35 AM 28.4 °F - 19.4 °F 69% 30.11 in 10.0 mi Calm Calm - N/A   Clear
5:55 AM 28.4 °F - 21.2 °F 74% 30.12 in 10.0 mi Calm Calm - N/A   Clear
6:15 AM 28.4 °F - 19.4 °F 69% 30.13 in 10.0 mi Calm Calm - N/A   Clear
6:35 AM 28.4 °F - 19.4 °F 69% 30.13 in 10.0 mi Calm Calm - N/A   Clear
6:45 AM 28.4 °F - 19.4 °F 69% 30.14 in 10.0 mi Calm Calm - N/A   Scattered Clouds
7:45 AM 26.6 °F - 19.4 °F 74% 30.15 in 10.0 mi Calm Calm - N/A   Scattered Clouds
8:47 AM 28.4 °F - 19.4 °F 69% 30.17 in 10.0 mi Calm Calm - N/A   Scattered Clouds
9:48 AM 35.6 °F - 19.4 °F 52% 30.18 in 10.0 mi Calm Calm - N/A   Scattered Clouds
10:48 AM 39.2 °F - 19.4 °F 45% 30.16 in 10.0 mi Calm Calm - N/A   Scattered Clouds
11:49 AM 44.6 °F - 19.4 °F 37% 30.14 in 10.0 mi Calm Calm - N/A   Scattered Clouds
12:46 PM 51.8 °F - 19.4 °F 28% 30.11 in 10.0 mi Calm Calm - N/A   Scattered Clouds
1:49 PM 57.2 °F - 17.6 °F 21% 30.08 in 10.0 mi Calm Calm - N/A   Mostly Cloudy
2:50 PM 60.8 °F - 12.2 °F 15% 30.06 in 10.0 mi SW 17.3 mph - N/A   Mostly Cloudy
3:47 PM 60.8 °F - 12.2 °F 15% 30.06 in 10.0 mi WSW 12.7 mph - N/A   Mostly Cloudy
4:50 PM 59.0 °F - 10.4 °F 15% 30.06 in 10.0 mi WSW 9.2 mph - N/A   Mostly Cloudy
5:50 PM 57.2 °F - 12.2 °F 17% 30.07 in 10.0 mi SSW 10.4 mph - N/A   Mostly Cloudy
6:45 PM 53.6 °F - 12.2 °F 19% 30.09 in 10.0 mi SSW 4.6 mph - N/A   Mostly Cloudy
7:15 PM 50.0 °F - 14.0 °F 24% 30.10 in 10.0 mi WSW 6.9 mph - N/A   Clear
7:35 PM 51.8 °F - 14.0 °F 22% 30.11 in 10.0 mi Calm Calm - N/A   Clear
7:55 PM 48.2 °F - 14.0 °F 25% 30.12 in 10.0 mi NE 4.6 mph - N/A   Clear
8:15 PM 42.8 °F 38.6 °F 15.8 °F 34% 30.12 in 10.0 mi East 6.9 mph - N/A   Clear
8:35 PM 42.8 °F 37.5 °F 15.8 °F 34% 30.13 in 10.0 mi East 9.2 mph - N/A   Clear
8:55 PM 39.2 °F 32.5 °F 15.8 °F 39% 30.13 in 10.0 mi East 10.4 mph - N/A   Clear
9:15 PM 39.2 °F 33.6 °F 15.8 °F 39% 30.14 in 10.0 mi ESE 8.1 mph - N/A   Clear
9:35 PM 37.4 °F 33.8 °F 15.8 °F 41% 30.15 in 10.0 mi ESE 4.6 mph - N/A   Clear
9:55 PM 37.4 °F 32.8 °F 15.8 °F 41% 30.16 in 10.0 mi ESE 5.8 mph - N/A   Clear
10:15 PM 37.4 °F 32.8 °F 15.8 °F 41% 30.16 in 10.0 mi East 5.8 mph - N/A   Clear
10:35 PM 35.6 °F - 15.8 °F 44% 30.17 in 10.0 mi Calm Calm - N/A   Clear
10:55 PM 35.6 °F 32.8 °F 15.8 °F 44% 30.17 in 10.0 mi SE 3.5 mph - N/A   Clear
11:15 PM 33.8 °F - 15.8 °F 48% 30.18 in 10.0 mi Calm Calm - N/A   Clear
11:35 PM 33.8 °F 30.8 °F 15.8 °F 48% 30.19 in 10.0 mi ESE 3.5 mph - N/A   Clear
11:55 PM 32.0 °F 28.7 °F 15.8 °F 51% 30.20 in 10.0 mi SSE 3.5 mph - N/A   Clear